Time,TemperatureF,DewpointF,PressureIn,WindDirection,WindDirectionDegrees,WindSpeedMPH,WindSpeedGustMPH,Humidity,HourlyPrecipIn,Conditions,Clouds,dailyrainin,SolarRadiationWatts/m^2,SoftwareType,DateUTC
2013-04-13 16:30:00,75.4,49.4,29.82,ESE,112,6.0,14.0,40,0.00,,---,0.00,336.00,VWS V14.00,2013-04-13 21:30:00,
2013-04-13 17:17:00,74.0,50.1,29.81,ESE,120,5.0,6.0,43,0.00,,---,0.00,223.00,VWS V14.00,2013-04-13 22:17:00,
2013-04-13 17:25:00,73.9,50.6,29.81,ESE,113,4.0,6.0,44,0.00,,---,0.00,169.00,VWS V14.00,2013-04-13 22:25:00,
2013-04-13 17:29:00,73.7,49.2,29.81,ESE,117,1.0,6.0,42,0.00,,---,0.00,179.00,VWS V14.00,2013-04-13 22:29:00,
2013-04-13 17:30:00,73.7,51.1,29.80,ESE,115,1.0,6.0,45,0.00,,---,0.00,181.00,VWS V14.00,2013-04-13 22:30:00,
2013-04-13 17:33:00,73.5,50.3,29.80,East,81,3.0,3.0,44,0.00,,---,0.00,172.00,VWS V14.00,2013-04-13 22:33:00,
2013-04-13 17:37:00,73.3,51.3,29.80,East,96,3.0,3.0,46,0.00,,---,0.00,160.00,VWS V14.00,2013-04-13 22:37:00,
2013-04-13 17:41:00,73.0,49.8,29.80,East,95,3.0,3.0,44,0.00,,---,0.00,146.00,VWS V14.00,2013-04-13 22:41:00,
2013-04-13 17:45:00,73.1,49.9,29.80,ESE,109,2.0,4.0,44,0.00,,---,0.00,139.00,VWS V14.00,2013-04-13 22:45:00,
2013-04-13 17:49:00,72.9,51.5,29.80,ESE,107,1.0,4.0,47,0.00,,---,0.00,134.00,VWS V14.00,2013-04-13 22:49:00,
2013-04-13 17:53:00,72.5,52.3,29.80,East,99,1.0,4.0,49,0.00,,---,0.00,134.00,VWS V14.00,2013-04-13 22:53:00,
2013-04-13 17:57:00,72.6,50.7,29.80,ESE,102,2.0,5.0,46,0.00,,---,0.00,134.00,VWS V14.00,2013-04-13 22:57:00,
2013-04-13 18:00:00,72.7,50.8,29.79,East,99,1.0,5.0,46,0.00,,---,0.00,137.00,VWS V14.00,2013-04-13 23:00:00,
2013-04-13 18:01:00,72.6,51.8,29.79,ESE,105,2.0,2.0,48,0.00,,---,0.00,139.00,VWS V14.00,2013-04-13 23:01:00,
2013-04-13 18:05:00,72.4,53.3,29.79,East,92,2.0,2.0,51,0.00,,---,0.00,135.00,VWS V14.00,2013-04-13 23:05:00,
2013-04-13 18:09:00,72.1,53.0,29.79,ESE,106,1.0,2.0,51,0.00,,---,0.00,125.00,VWS V14.00,2013-04-13 23:09:00,
2013-04-13 18:13:00,72.0,50.7,29.79,ESE,109,2.0,4.0,47,0.00,,---,0.00,102.00,VWS V14.00,2013-04-13 23:13:00,
2013-04-13 18:17:00,72.0,52.4,29.79,ESE,111,3.0,4.0,50,0.00,,---,0.00,97.00,VWS V14.00,2013-04-13 23:17:00,
2013-04-13 18:21:00,72.1,50.2,29.79,ESE,113,2.0,4.0,46,0.00,,---,0.00,104.00,VWS V14.00,2013-04-13 23:21:00,
2013-04-13 18:25:00,72.2,50.3,29.79,ESE,109,3.0,4.0,46,0.00,,---,0.00,102.00,VWS V14.00,2013-04-13 23:25:00,
2013-04-13 18:29:00,72.2,50.9,29.79,ESE,106,5.0,5.0,47,0.00,,---,0.00,111.00,VWS V14.00,2013-04-13 23:29:00,
2013-04-13 18:30:00,72.2,49.1,29.79,East,101,1.0,5.0,44,0.00,,---,0.00,111.00,VWS V14.00,2013-04-13 23:30:00,
2013-04-13 18:33:00,72.5,51.2,29.79,ESE,105,2.0,5.0,47,0.00,,---,0.00,186.00,VWS V14.00,2013-04-13 23:33:00,
2013-04-13 18:37:00,72.3,51.0,29.79,East,96,1.0,5.0,47,0.00,,---,0.00,114.00,VWS V14.00,2013-04-13 23:37:00,
2013-04-13 18:41:00,72.0,51.3,29.79,ENE,78,2.0,5.0,48,0.00,,---,0.00,83.00,VWS V14.00,2013-04-13 23:41:00,
2013-04-13 18:45:00,71.5,53.5,29.79,East,81,2.0,5.0,53,0.00,,---,0.00,62.00,VWS V14.00,2013-04-13 23:45:00,
2013-04-13 18:49:00,70.9,53.4,29.79,ESE,102,1.0,5.0,54,0.00,,---,0.00,56.00,VWS V14.00,2013-04-13 23:49:00,
2013-04-13 18:54:00,70.2,52.8,29.79,ESE,116,1.0,5.0,54,0.00,,---,0.00,51.00,VWS V14.00,2013-04-13 23:54:00,
2013-04-13 18:58:00,69.8,53.4,29.79,ESE,109,0.0,5.0,56,0.00,,---,0.00,47.00,VWS V14.00,2013-04-13 23:58:00,
2013-04-13 19:00:00,69.8,53.4,29.79,East,90,0.0,5.0,56,0.00,,---,0.00,51.00,VWS V14.00,2013-04-14 00:00:00,
2013-04-13 19:02:00,69.7,53.3,29.79,East,96,0.0,1.0,56,0.00,,---,0.00,62.00,VWS V14.00,2013-04-14 00:02:00,
2013-04-13 19:06:00,69.7,52.8,29.79,ENE,67,1.0,2.0,55,0.00,,---,0.00,42.00,VWS V14.00,2013-04-14 00:06:00,
2013-04-13 19:10:00,69.8,52.4,29.79,East,82,0.0,2.0,54,0.00,,---,0.00,35.00,VWS V14.00,2013-04-14 00:10:00,
2013-04-13 19:14:00,69.9,52.5,29.79,East,80,1.0,2.0,54,0.00,,---,0.00,30.00,VWS V14.00,2013-04-14 00:14:00,
2013-04-13 19:18:00,69.7,52.8,29.79,East,84,3.0,3.0,55,0.00,,---,0.00,26.00,VWS V14.00,2013-04-14 00:18:00,
2013-04-13 19:22:00,69.8,50.9,29.79,ESE,118,3.0,5.0,51,0.00,,---,0.00,23.00,VWS V14.00,2013-04-14 00:22:00,
2013-04-13 19:26:00,70.3,49.7,29.79,SE,134,4.0,5.0,48,0.00,,---,0.00,21.00,VWS V14.00,2013-04-14 00:26:00,
2013-04-13 19:30:00,70.6,50.5,29.79,SE,131,10.0,10.0,49,0.00,,---,0.00,18.00,VWS V14.00,2013-04-14 00:30:00,
2013-04-13 19:34:00,70.8,50.2,29.79,SE,135,7.0,10.0,48,0.00,,---,0.00,18.00,VWS V14.00,2013-04-14 00:34:00,
2013-04-13 19:38:00,70.9,48.5,29.79,SE,146,7.0,10.0,45,0.00,,---,0.00,11.00,VWS V14.00,2013-04-14 00:38:00,
2013-04-13 19:42:00,70.9,49.7,29.79,ESE,123,7.0,10.0,47,0.00,,---,0.00,0.00,VWS V14.00,2013-04-14 00:42:00,
2013-04-13 19:50:00,70.4,48.1,29.79,SSE,148,4.0,10.0,45,0.00,,---,0.00,0.00,VWS V14.00,2013-04-14 00:50:00,
2013-04-13 19:54:00,70.2,48.5,29.79,ESE,117,6.0,10.0,46,0.00,,---,0.00,0.00,VWS V14.00,2013-04-14 00:54:00,
2013-04-13 19:58:00,70.1,47.8,29.79,SE,138,7.0,10.0,45,0.00,,---,0.00,0.00,VWS V14.00,2013-04-14 00:58:00,
2013-04-13 20:00:00,70.1,48.4,29.78,SE,131,4.0,10.0,46,0.00,,---,0.00,0.00,VWS V14.00,2013-04-14 01:00:00,
2013-04-13 20:02:00,69.9,48.8,29.78,SE,136,5.0,5.0,47,0.00,,---,0.00,0.00,VWS V14.00,2013-04-14 01:02:00,
2013-04-13 20:06:00,69.9,48.2,29.78,SE,130,6.0,6.0,46,0.00,,---,0.00,0.00,VWS V14.00,2013-04-14 01:06:00,
2013-04-13 20:10:00,69.9,47.6,29.78,SE,127,4.0,7.0,45,0.00,,---,0.00,0.00,VWS V14.00,2013-04-14 01:10:00,
2013-04-13 20:14:00,69.7,48.6,29.77,ESE,117,4.0,7.0,47,0.00,,---,0.00,0.00,VWS V14.00,2013-04-14 01:14:00,
2013-04-13 20:18:00,69.7,47.4,29.77,ESE,123,3.0,7.0,45,0.00,,---,0.00,0.00,VWS V14.00,2013-04-14 01:18:00,
2013-04-13 20:22:00,69.7,48.0,29.77,ESE,113,3.0,7.0,46,0.00,,---,0.00,0.00,VWS V14.00,2013-04-14 01:22:00,
2013-04-13 20:26:00,69.7,48.0,29.77,ESE,119,3.0,7.0,46,0.00,,---,0.00,0.00,VWS V14.00,2013-04-14 01:26:00,
2013-04-13 20:30:00,69.5,48.4,29.77,ESE,118,2.0,7.0,47,0.00,,---,0.00,0.00,VWS V14.00,2013-04-14 01:30:00,
2013-04-13 20:34:00,69.2,48.1,29.77,ESE,118,3.0,3.0,47,0.00,,---,0.00,0.00,VWS V14.00,2013-04-14 01:34:00,
2013-04-13 20:38:00,69.0,48.5,29.77,ESE,113,3.0,3.0,48,0.00,,---,0.00,0.00,VWS V14.00,2013-04-14 01:38:00,
2013-04-13 20:42:00,68.9,49.0,29.77,ESE,122,3.0,3.0,49,0.00,,---,0.00,0.00,VWS V14.00,2013-04-14 01:42:00,
2013-04-13 20:47:00,68.7,47.7,29.78,SSE,148,5.0,5.0,47,0.00,,---,0.00,0.00,VWS V14.00,2013-04-14 01:47:00,
2013-04-13 20:51:00,68.7,48.2,29.78,SE,140,6.0,6.0,48,0.00,,---,0.00,0.00,VWS V14.00,2013-04-14 01:51:00,
2013-04-13 20:55:00,68.6,48.2,29.78,SSE,147,4.0,6.0,48,0.00,,---,0.00,0.00,VWS V14.00,2013-04-14 01:55:00,
2013-04-13 20:59:00,68.6,48.2,29.78,SE,143,6.0,7.0,48,0.00,,---,0.00,0.00,VWS V14.00,2013-04-14 01:59:00,
2013-04-13 21:00:00,68.6,47.0,29.79,SE,141,3.0,7.0,46,0.00,,---,0.00,0.00,VWS V14.00,2013-04-14 02:00:00,
2013-04-13 21:03:00,68.6,47.6,29.79,SE,140,5.0,5.0,47,0.00,,---,0.00,0.00,VWS V14.00,2013-04-14 02:03:00,
2013-04-13 21:07:00,68.6,48.7,29.79,SE,137,5.0,6.0,49,0.00,,---,0.00,0.00,VWS V14.00,2013-04-14 02:07:00,
2013-04-13 21:15:00,68.6,47.6,29.78,ESE,117,3.0,6.0,47,0.00,,---,0.00,0.00,VWS V14.00,2013-04-14 02:15:00,
2013-04-13 21:19:00,68.6,48.2,29.78,ESE,113,2.0,6.0,48,0.00,,---,0.00,0.00,VWS V14.00,2013-04-14 02:19:00,
2013-04-13 21:23:00,68.6,47.6,29.78,ESE,105,1.0,6.0,47,0.00,,---,0.00,0.00,VWS V14.00,2013-04-14 02:23:00,
2013-04-13 21:27:00,68.6,49.2,29.78,ESE,107,2.0,6.0,50,0.00,,---,0.00,0.00,VWS V14.00,2013-04-14 02:27:00,
2013-04-13 21:30:00,68.4,50.1,29.78,ESE,105,1.0,6.0,52,0.00,,---,0.00,0.00,VWS V14.00,2013-04-14 02:30:00,
2013-04-13 21:31:00,68.4,50.6,29.78,ESE,105,1.0,1.0,53,0.00,,---,0.00,0.00,VWS V14.00,2013-04-14 02:31:00,
2013-04-13 21:35:00,67.7,49.5,29.78,ESE,105,2.0,2.0,52,0.00,,---,0.00,0.00,VWS V14.00,2013-04-14 02:35:00,
2013-04-13 21:39:00,67.5,49.3,29.78,ESE,119,2.0,3.0,52,0.00,,---,0.00,0.00,VWS V14.00,2013-04-14 02:39:00,
2013-04-13 21:43:00,67.4,48.7,29.78,ESE,119,2.0,3.0,51,0.00,,---,0.00,0.00,VWS V14.00,2013-04-14 02:43:00,
2013-04-13 21:47:00,67.3,48.0,29.79,ESE,119,1.0,3.0,50,0.00,,---,0.00,0.00,VWS V14.00,2013-04-14 02:47:00,
2013-04-13 21:51:00,67.4,48.1,29.79,SE,126,3.0,3.0,50,0.00,,---,0.00,0.00,VWS V14.00,2013-04-14 02:51:00,
2013-04-13 21:55:00,67.3,48.0,29.79,SE,136,2.0,3.0,50,0.00,,---,0.00,0.00,VWS V14.00,2013-04-14 02:55:00,
2013-04-13 21:59:00,67.1,48.4,29.79,SE,142,3.0,3.0,51,0.00,,---,0.00,0.00,VWS V14.00,2013-04-14 02:59:00,
2013-04-13 22:00:00,67.1,48.4,29.79,SE,146,1.0,3.0,51,0.00,,---,0.00,0.00,VWS V14.00,2013-04-14 03:00:00,
2013-04-13 22:03:00,66.9,48.2,29.79,SE,144,2.0,4.0,51,0.00,,---,0.00,0.00,VWS V14.00,2013-04-14 03:03:00,
2013-04-13 22:07:00,66.7,48.0,29.79,SSE,149,3.0,4.0,51,0.00,,---,0.00,0.00,VWS V14.00,2013-04-14 03:07:00,
2013-04-13 22:11:00,66.6,48.4,29.79,SSE,150,3.0,4.0,52,0.00,,---,0.00,0.00,VWS V14.00,2013-04-14 03:11:00,
2013-04-13 22:15:00,66.5,48.9,29.79,SSE,161,2.0,4.0,53,0.00,,---,0.00,0.00,VWS V14.00,2013-04-14 03:15:00,
2013-04-13 22:19:00,66.3,48.7,29.79,South,173,3.0,4.0,53,0.00,,---,0.00,0.00,VWS V14.00,2013-04-14 03:19:00,
2013-04-13 22:23:00,66.3,50.2,29.79,South,171,3.0,4.0,56,0.00,,---,0.00,0.00,VWS V14.00,2013-04-14 03:23:00,
2013-04-13 22:28:00,66.2,48.6,29.79,SE,140,3.0,5.0,53,0.00,,---,0.00,0.00,VWS V14.00,2013-04-14 03:28:00,
2013-04-13 22:30:00,66.2,48.6,29.79,SSE,158,5.0,5.0,53,0.00,,---,0.00,0.00,VWS V14.00,2013-04-14 03:30:00,
2013-04-13 22:32:00,66.3,48.7,29.79,SSE,155,4.0,5.0,53,0.00,,---,0.00,0.00,VWS V14.00,2013-04-14 03:32:00,
2013-04-13 22:36:00,66.4,48.8,29.79,SE,142,4.0,6.0,53,0.00,,---,0.00,0.00,VWS V14.00,2013-04-14 03:36:00,
2013-04-13 22:40:00,66.5,48.9,29.79,SE,136,4.0,6.0,53,0.00,,---,0.00,0.00,VWS V14.00,2013-04-14 03:40:00,
2013-04-13 22:44:00,66.7,49.0,29.79,SSE,147,4.0,6.0,53,0.00,,---,0.00,0.00,VWS V14.00,2013-04-14 03:44:00,
2013-04-13 22:48:00,66.7,49.5,29.79,SE,140,6.0,7.0,54,0.00,,---,0.00,0.00,VWS V14.00,2013-04-14 03:48:00,
2013-04-13 22:52:00,66.6,49.5,29.79,SE,144,3.0,7.0,54,0.00,,---,0.00,0.00,VWS V14.00,2013-04-14 03:52:00,
2013-04-13 22:56:00,66.5,48.9,29.79,SE,141,4.0,7.0,53,0.00,,---,0.00,0.00,VWS V14.00,2013-04-14 03:56:00,
2013-04-13 23:00:00,66.4,49.8,29.78,SSE,150,4.0,7.0,55,0.00,,---,0.00,0.00,VWS V14.00,2013-04-14 04:00:00,
2013-04-13 23:04:00,66.3,49.2,29.78,SSE,150,4.0,6.0,54,0.00,,---,0.00,0.00,VWS V14.00,2013-04-14 04:04:00,
2013-04-13 23:08:00,66.3,48.7,29.78,SE,146,4.0,6.0,53,0.00,,---,0.00,0.00,VWS V14.00,2013-04-14 04:08:00,
2013-04-13 23:12:00,66.1,50.0,29.78,SE,142,3.0,6.0,56,0.00,,---,0.00,0.00,VWS V14.00,2013-04-14 04:12:00,
2013-04-13 23:16:00,65.9,49.3,29.77,SE,146,4.0,6.0,55,0.00,,---,0.00,0.00,VWS V14.00,2013-04-14 04:16:00,
2013-04-13 23:20:00,65.8,50.2,29.77,SSE,163,4.0,6.0,57,0.00,,---,0.00,0.00,VWS V14.00,2013-04-14 04:20:00,
2013-04-13 23:24:00,65.7,49.1,29.77,SE,138,4.0,6.0,55,0.00,,---,0.00,0.00,VWS V14.00,2013-04-14 04:24:00,
2013-04-13 23:28:00,65.9,49.3,29.77,SE,145,3.0,6.0,55,0.00,,---,0.00,0.00,VWS V14.00,2013-04-14 04:28:00,
2013-04-13 23:30:00,65.9,49.3,29.77,SSE,148,2.0,6.0,55,0.00,,---,0.00,0.00,VWS V14.00,2013-04-14 04:30:00,
2013-04-13 23:32:00,65.9,50.2,29.77,SE,145,2.0,3.0,57,0.00,,---,0.00,0.00,VWS V14.00,2013-04-14 04:32:00,
2013-04-13 23:36:00,65.9,49.3,29.77,SE,138,4.0,5.0,55,0.00,,---,0.00,0.00,VWS V14.00,2013-04-14 04:36:00,
2013-04-13 23:40:00,65.9,49.3,29.77,SE,142,3.0,5.0,55,0.00,,---,0.00,0.00,VWS V14.00,2013-04-14 04:40:00,
2013-04-13 23:44:00,66.1,49.5,29.77,SE,132,4.0,5.0,55,0.00,,---,0.00,0.00,VWS V14.00,2013-04-14 04:44:00,
2013-04-13 23:48:00,66.1,49.5,29.77,SE,138,4.0,5.0,55,0.00,,---,0.00,0.00,VWS V14.00,2013-04-14 04:48:00,
2013-04-13 23:52:00,66.2,49.1,29.77,SE,134,3.0,6.0,54,0.00,,---,0.00,0.00,VWS V14.00,2013-04-14 04:52:00,
2013-04-13 23:56:00,66.2,50.5,29.77,SE,138,4.0,6.0,57,0.00,,---,0.00,0.00,VWS V14.00,2013-04-14 04:56:00,